Datum;Stunden;Zählung;Temperatur (°C);Min. Temperatur (°C);Max. Temperatur (°C);Windstärke (km/h);Regen (mm);Schnee (mm);Wetter
01.01.2017;00:00:00;14;-2;-;-;19;;;teilweise bewölkt
01.01.2017;01:00:00;10;-3;-;-;20;;;
01.01.2017;02:00:00;12;-3;-;-;13;;;wolkig
01.01.2017;03:00:00;15;-3;-;-;15;;;wolkig
01.01.2017;04:00:00;9;-3;-;-;17;;;wolkig
01.01.2017;05:00:00;4;-3;-;-;17;;;wolkig
01.01.2017;06:00:00;2;-2;-;-;15;;;wolkig
01.01.2017;07:00:00;2;-2;-;-;20;;;wolkig
01.01.2017;08:00:00;2;-2;-;-;20;;;wolkig
01.01.2017;09:00:00;5;-2;-;-;19;;;wolkig
01.01.2017;10:00:00;9;-1;-;-;19;;;teilweise bewölkt
01.01.2017;11:00:00;6;0;-;-;17;;;teilweise bewölkt
01.01.2017;12:00:00;15;1;-;-;15;;;Klarer Himmel
01.01.2017;13:00:00;20;1;-;-;17;;;Klarer Himmel
01.01.2017;14:00:00;33;1;-;-;22;;;Klarer Himmel
01.01.2017;15:00:00;33;1;-;-;17;;;wolkig
01.01.2017;16:00:00;29;1;-;-;17;;;wolkig
01.01.2017;17:00:00;22;1;-;-;15;;;wolkig
01.01.2017;18:00:00;22;2;-;-;17;;;wolkig
01.01.2017;19:00:00;20;2;-;-;19;;;wolkig
01.01.2017;20:00:00;17;1;-;-;15;;;wolkig
01.01.2017;21:00:00;6;1;-;-;17;;;Regen
01.01.2017;22:00:00;0;0;-;-;11;;;Regen
01.01.2017;23:00:00;2;0;-;-;15;;;Regen
02.01.2017;00:00:00;0;0;-;-;11;;;Regen
02.01.2017;01:00:00;1;0;-;-;11;;;Schnee
02.01.2017;02:00:00;0;0;-;-;7;;;Schnee
02.01.2017;03:00:00;0;0;-;-;6;;;Schnee
02.01.2017;04:00:00;0;0;-;-;6;;;Schnee
02.01.2017;05:00:00;6;0;-;-;7;;;Schnee
02.01.2017;06:00:00;13;0;-;-;9;;;wolkig
02.01.2017;07:00:00;38;1;-;-;6;;;wolkig
02.01.2017;08:00:00;51;1;-;-;9;;;wolkig
02.01.2017;09:00:00;33;1;-;-;11;;;wolkig
02.01.2017;10:00:00;35;1;-;-;9;;;wolkig
02.01.2017;11:00:00;31;1;-;-;9;;;wolkig
02.01.2017;12:00:00;31;3;-;-;11;;;teilweise bewölkt
02.01.2017;13:00:00;35;4;-;-;15;;;teilweise bewölkt
02.01.2017;14:00:00;30;5;-;-;13;;;teilweise bewölkt
02.01.2017;15:00:00;46;4;-;-;11;;;wolkig
02.01.2017;16:00:00;56;4;-;-;11;;;wolkig
02.01.2017;17:00:00;53;3;-;-;11;;;wolkig
02.01.2017;18:00:00;50;2;-;-;11;;;wolkig
02.01.2017;19:00:00;32;1;-;-;13;;;wolkig
02.01.2017;20:00:00;28;1;-;-;13;;;Klarer Himmel
02.01.2017;21:00:00;24;0;-;-;11;;;wolkig
02.01.2017;22:00:00;8;0;-;-;9;;;teilweise bewölkt
02.01.2017;23:00:00;4;0;-;-;7;;;teilweise bewölkt
03.01.2017;00:00:00;1;0;-;-;9;;;teilweise bewölkt
03.01.2017;01:00:00;3;0;-;-;11;;;teilweise bewölkt
03.01.2017;02:00:00;2;-3;-;-;9;;;wolkig
03.01.2017;03:00:00;0;-2;-;-;7;;;Nebel
03.01.2017;04:00:00;0;1;-;-;11;;;wolkig
03.01.2017;05:00:00;8;1;-;-;11;;;wolkig
03.01.2017;06:00:00;20;1;-;-;13;;;Regen
03.01.2017;07:00:00;49;2;-;-;17;;;wolkig
03.01.2017;08:00:00;69;2;-;-;15;;;wolkig
03.01.2017;09:00:00;51;2;-;-;15;;;wolkig
03.01.2017;10:00:00;47;2;-;-;19;;;wolkig
03.01.2017;11:00:00;42;3;-;-;24;;;wolkig
03.01.2017;12:00:00;59;3;-;-;26;;;wolkig
03.01.2017;13:00:00;43;2;-;-;24;;;wolkig
03.01.2017;14:00:00;47;3;-;-;22;;;wolkig
03.01.2017;15:00:00;46;2;-;-;26;;;wolkig
03.01.2017;16:00:00;58;3;-;-;28;;;Regen
03.01.2017;17:00:00;68;3;-;-;24;;;Regen
03.01.2017;18:00:00;71;3;-;-;24;;;wolkig
03.01.2017;19:00:00;58;3;-;-;28;;;wolkig
03.01.2017;20:00:00;26;3;-;-;28;;;wolkig
03.01.2017;21:00:00;17;4;-;-;24;;;wolkig
03.01.2017;22:00:00;22;4;-;-;30;;;wolkig
03.01.2017;23:00:00;6;4;-;-;32;;;Regen
04.01.2017;00:00:00;1;3;-;-;26;;;Regen
04.01.2017;01:00:00;2;3;-;-;33;;;Regen
04.01.2017;02:00:00;1;3;-;-;30;;;Regen
04.01.2017;03:00:00;2;4;-;-;33;;;Regen
04.01.2017;04:00:00;0;4;-;-;32;;;Regen
04.01.2017;05:00:00;7;4;-;-;24;;;Regen
04.01.2017;06:00:00;22;5;-;-;26;;;wolkig
04.01.2017;07:00:00;39;5;-;-;19;;;wolkig
04.01.2017;08:00:00;76;6;-;-;24;;;wolkig
04.01.2017;09:00:00;73;6;-;-;26;;;wolkig
04.01.2017;10:00:00;29;6;-;-;22;;;wolkig
04.01.2017;11:00:00;47;6;-;-;28;;;Regen
04.01.2017;12:00:00;38;6;-;-;26;;;Regen
04.01.2017;13:00:00;37;5;-;-;28;;;wolkig
04.01.2017;14:00:00;54;6;-;-;24;;;teilweise bewölkt
04.01.2017;15:00:00;38;5;-;-;19;;;teilweise bewölkt
04.01.2017;16:00:00;63;5;-;-;26;;;wolkig
04.01.2017;17:00:00;69;3;-;-;30;;;Regen
04.01.2017;18:00:00;58;3;-;-;15;;;wolkig
04.01.2017;19:00:00;51;4;-;-;22;;;wolkig
04.01.2017;20:00:00;21;3;-;-;13;;;teilweise bewölkt
04.01.2017;21:00:00;22;2;-;-;11;;;teilweise bewölkt
04.01.2017;22:00:00;10;2;-;-;7;;;teilweise bewölkt
04.01.2017;23:00:00;6;2;-;-;11;;;Klarer Himmel
05.01.2017;00:00:00;2;1;-;-;6;;;Klarer Himmel
05.01.2017;01:00:00;0;1;-;-;2;;;Klarer Himmel
05.01.2017;02:00:00;2;1;-;-;11;;;Klarer Himmel
05.01.2017;03:00:00;0;1;-;-;6;;;wolkig
05.01.2017;04:00:00;0;2;-;-;11;;;wolkig
05.01.2017;05:00:00;8;2;-;-;15;;;teilweise bewölkt
05.01.2017;06:00:00;10;1;-;-;11;;;wolkig
05.01.2017;07:00:00;55;0;-;-;9;;;teilweise bewölkt
05.01.2017;08:00:00;96;-1;-;-;6;;;Klarer Himmel
05.01.2017;09:00:00;65;0;-;-;7;;;Nebel
05.01.2017;10:00:00;31;1;-;-;15;;;Nebel
05.01.2017;11:00:00;43;2;-;-;15;;;teilweise bewölkt
05.01.2017;12:00:00;39;2;-;-;19;;;teilweise bewölkt
05.01.2017;13:00:00;50;2;-;-;19;;;teilweise bewölkt
05.01.2017;14:00:00;62;1;-;-;15;;;teilweise bewölkt
05.01.2017;15:00:00;60;1;-;-;17;;;teilweise bewölkt
05.01.2017;16:00:00;60;0;-;-;11;;;teilweise bewölkt
05.01.2017;17:00:00;64;-1;-;-;7;;;teilweise bewölkt
05.01.2017;18:00:00;73;-2;-;-;6;;;teilweise bewölkt
05.01.2017;19:00:00;52;-3;-;-;6;;;teilweise bewölkt
05.01.2017;20:00:00;36;-3;-;-;9;;;teilweise bewölkt
05.01.2017;21:00:00;22;-4;-;-;6;;;teilweise bewölkt
05.01.2017;22:00:00;13;-6;-;-;4;;;Klarer Himmel
05.01.2017;23:00:00;7;-7;-;-;6;;;Klarer Himmel
06.01.2017;00:00:00;3;-6;-;-;4;;;Klarer Himmel
06.01.2017;01:00:00;2;-7;-;-;7;;;Klarer Himmel
06.01.2017;02:00:00;2;-8;-;-;7;;;Klarer Himmel
06.01.2017;03:00:00;1;-7;-;-;4;;;Klarer Himmel
06.01.2017;04:00:00;0;-9;-;-;4;;;Klarer Himmel
06.01.2017;05:00:00;5;-8;-;-;4;;;Klarer Himmel
06.01.2017;06:00:00;14;-9;-;-;4;;;Klarer Himmel
06.01.2017;07:00:00;42;-9;-;-;6;;;Klarer Himmel
06.01.2017;08:00:00;83;-7;-;-;4;;;Klarer Himmel
06.01.2017;09:00:00;71;-4;-;-;17;;;Klarer Himmel
06.01.2017;10:00:00;51;-4;-;-;15;;;Klarer Himmel
06.01.2017;11:00:00;39;-3;-;-;17;;;Klarer Himmel
06.01.2017;12:00:00;61;-2;-;-;11;;;Klarer Himmel
06.01.2017;13:00:00;54;-1;-;-;9;;;Klarer Himmel
06.01.2017;14:00:00;67;-1;-;-;15;;;Klarer Himmel
06.01.2017;15:00:00;67;-1;-;-;13;;;Klarer Himmel
06.01.2017;16:00:00;65;-2;-;-;13;;;Klarer Himmel
06.01.2017;17:00:00;66;-3;-;-;9;;;Klarer Himmel
06.01.2017;18:00:00;65;-3;-;-;15;;;Klarer Himmel
06.01.2017;19:00:00;38;-3;-;-;15;;;Klarer Himmel
06.01.2017;20:00:00;34;-4;-;-;17;;;Klarer Himmel
06.01.2017;21:00:00;20;-4;-;-;15;;;Klarer Himmel
06.01.2017;22:00:00;12;-4;-;-;15;;;Klarer Himmel
06.01.2017;23:00:00;23;-4;-;-;20;;;Klarer Himmel
07.01.2017;00:00:00;6;-4;-;-;19;;;Klarer Himmel
07.01.2017;01:00:00;12;-4;-;-;15;;;Klarer Himmel
07.01.2017;02:00:00;0;-4;-;-;15;;;wolkig
07.01.2017;03:00:00;2;-4;-;-;19;;;wolkig
07.01.2017;04:00:00;2;-4;-;-;17;;;wolkig
07.01.2017;05:00:00;1;-4;-;-;15;;;Schnee
07.01.2017;06:00:00;3;-4;-;-;22;;;Schnee
07.01.2017;07:00:00;6;-4;-;-;22;;;Schnee
07.01.2017;08:00:00;8;-3;-;-;19;;;Schnee
07.01.2017;09:00:00;16;-3;-;-;22;;;Schnee
07.01.2017;10:00:00;26;-3;-;-;22;;;wolkig
07.01.2017;11:00:00;34;-2;-;-;22;;;Regen
07.01.2017;12:00:00;28;-2;-;-;19;;;Regen
07.01.2017;13:00:00;39;-2;-;-;22;;;Regen
07.01.2017;14:00:00;41;-2;-;-;20;;;Schneeregen
07.01.2017;15:00:00;24;-2;-;-;13;;;Schneeregen
07.01.2017;16:00:00;13;-2;-;-;13;;;Schneeregen
07.01.2017;17:00:00;10;-1;-;-;13;;;Schneeregen
07.01.2017;18:00:00;0;-1;-;-;9;;;wolkig
07.01.2017;19:00:00;3;0;-;-;7;;;Regen
07.01.2017;20:00:00;3;0;-;-;6;;;wolkig
07.01.2017;21:00:00;5;0;-;-;6;;;Regen
07.01.2017;22:00:00;3;0;-;-;4;;;wolkig
07.01.2017;23:00:00;2;0;-;-;6;;;Schneeregen
08.01.2017;00:00:00;0;0;-;-;7;;;Regen
08.01.2017;01:00:00;3;0;-;-;6;;;Nebel
08.01.2017;02:00:00;1;1;-;-;9;;;Regen
08.01.2017;03:00:00;2;1;-;-;6;;;Regen
08.01.2017;04:00:00;1;1;-;-;2;;;Nebel
08.01.2017;05:00:00;1;1;-;-;4;;;Regen
08.01.2017;06:00:00;1;2;-;-;9;;;Regen
08.01.2017;07:00:00;6;2;-;-;6;;;Regen
08.01.2017;08:00:00;2;2;-;-;6;;;Nebel
08.01.2017;09:00:00;8;2;-;-;7;;;Nebel
08.01.2017;10:00:00;13;2;-;-;7;;;Nebel
08.01.2017;11:00:00;18;3;-;-;6;;;Nebel
08.01.2017;12:00:00;10;3;-;-;2;;;wolkig
08.01.2017;13:00:00;26;4;-;-;2;;;wolkig
08.01.2017;14:00:00;31;4;-;-;2;;;wolkig
08.01.2017;15:00:00;30;4;-;-;2;;;wolkig
08.01.2017;16:00:00;27;3;-;-;2;;;Nebel
08.01.2017;17:00:00;34;3;-;-;2;;;Nebel
08.01.2017;18:00:00;33;3;-;-;2;;;Nebel
08.01.2017;19:00:00;26;3;-;-;6;;;wolkig
08.01.2017;20:00:00;15;3;-;-;4;;;wolkig
08.01.2017;21:00:00;9;3;-;-;7;;;wolkig
08.01.2017;22:00:00;16;3;-;-;6;;;wolkig
08.01.2017;23:00:00;3;3;-;-;7;;;wolkig
09.01.2017;00:00:00;1;2;-;-;6;;;wolkig
09.01.2017;01:00:00;0;2;-;-;6;;;wolkig
09.01.2017;02:00:00;0;2;-;-;6;;;wolkig
09.01.2017;03:00:00;0;2;-;-;6;;;wolkig
09.01.2017;04:00:00;2;2;-;-;6;;;wolkig
09.01.2017;05:00:00;6;2;-;-;7;;;wolkig
09.01.2017;06:00:00;23;3;-;-;11;;;wolkig
09.01.2017;07:00:00;65;3;-;-;17;;;wolkig
09.01.2017;08:00:00;133;3;-;-;17;;;wolkig
09.01.2017;09:00:00;73;3;-;-;17;;;wolkig
09.01.2017;10:00:00;48;3;-;-;17;;;wolkig
09.01.2017;11:00:00;57;4;-;-;17;;;wolkig
09.01.2017;12:00:00;60;4;-;-;17;;;wolkig
09.01.2017;13:00:00;46;5;-;-;17;;;Regen
09.01.2017;14:00:00;48;5;-;-;19;;;wolkig
09.01.2017;15:00:00;57;5;-;-;20;;;wolkig
09.01.2017;16:00:00;72;5;-;-;19;;;wolkig
09.01.2017;17:00:00;75;4;-;-;20;;;Regen
09.01.2017;18:00:00;88;4;-;-;24;;;wolkig
09.01.2017;19:00:00;64;4;-;-;24;;;Regen
09.01.2017;20:00:00;25;4;-;-;20;;;Regen
09.01.2017;21:00:00;30;4;-;-;24;;;Regen
09.01.2017;22:00:00;17;4;-;-;22;;;Regen
09.01.2017;23:00:00;9;3;-;-;24;;;Regen
10.01.2017;00:00:00;5;3;-;-;24;;;Regen
10.01.2017;01:00:00;2;3;-;-;26;;;Regen
10.01.2017;02:00:00;0;3;-;-;24;;;Regen
10.01.2017;03:00:00;1;3;-;-;28;;;Regen
10.01.2017;04:00:00;2;3;-;-;28;;;
10.01.2017;05:00:00;4;3;-;-;28;;;Regen
10.01.2017;06:00:00;14;3;-;-;20;;;Regen
10.01.2017;07:00:00;61;3;-;-;17;;;wolkig
10.01.2017;08:00:00;114;3;-;-;17;;;wolkig
10.01.2017;09:00:00;75;3;-;-;17;;;wolkig
10.01.2017;10:00:00;37;3;-;-;13;;;
10.01.2017;11:00:00;37;4;-;-;13;;;wolkig
10.01.2017;12:00:00;55;4;-;-;15;;;wolkig
10.01.2017;13:00:00;48;4;-;-;11;;;Regen
10.01.2017;14:00:00;56;5;-;-;9;;;wolkig
10.01.2017;15:00:00;66;5;-;-;11;;;wolkig
10.01.2017;16:00:00;70;5;-;-;9;;;wolkig
10.01.2017;17:00:00;86;5;-;-;13;;;wolkig
10.01.2017;18:00:00;78;4;-;-;13;;;wolkig
10.01.2017;19:00:00;68;4;-;-;13;;;Regen
10.01.2017;20:00:00;36;3;-;-;15;;;Regen
10.01.2017;21:00:00;30;3;-;-;15;;;wolkig
10.01.2017;22:00:00;27;3;-;-;17;;;wolkig
10.01.2017;23:00:00;9;3;-;-;19;;;wolkig
11.01.2017;00:00:00;6;3;-;-;15;;;wolkig
11.01.2017;01:00:00;2;3;-;-;19;;;wolkig
11.01.2017;02:00:00;0;3;-;-;22;;;wolkig
11.01.2017;03:00:00;1;3;-;-;19;;;wolkig
11.01.2017;04:00:00;1;3;-;-;19;;;Regen
11.01.2017;05:00:00;5;3;-;-;22;;;wolkig
11.01.2017;06:00:00;21;4;-;-;24;;;wolkig
11.01.2017;07:00:00;71;5;-;-;20;;;wolkig
11.01.2017;08:00:00;119;5;-;-;22;;;wolkig
11.01.2017;09:00:00;83;5;-;-;28;;;Regen
11.01.2017;10:00:00;51;6;-;-;30;;;Regen
11.01.2017;11:00:00;35;6;-;-;30;;;Regen
11.01.2017;12:00:00;34;6;-;-;30;;;Regen
11.01.2017;13:00:00;31;7;-;-;28;;;Regen
11.01.2017;14:00:00;43;8;-;-;22;;;Regen
11.01.2017;15:00:00;60;8;-;-;20;;;wolkig
11.01.2017;16:00:00;62;7;-;-;41;;;Regen
11.01.2017;17:00:00;79;6;-;-;26;;;wolkig
11.01.2017;18:00:00;100;6;-;-;19;;;wolkig
11.01.2017;19:00:00;62;6;-;-;26;;;Regen
11.01.2017;20:00:00;27;6;-;-;26;;;wolkig
11.01.2017;21:00:00;19;6;-;-;24;;;teilweise bewölkt
11.01.2017;22:00:00;19;6;-;-;20;;;teilweise bewölkt
11.01.2017;23:00:00;11;5;-;-;20;;;teilweise bewölkt
12.01.2017;00:00:00;7;5;-;-;24;;;teilweise bewölkt
12.01.2017;01:00:00;2;5;-;-;22;;;teilweise bewölkt
12.01.2017;02:00:00;1;4;-;-;19;;;wolkig
12.01.2017;03:00:00;2;4;-;-;19;;;wolkig
12.01.2017;04:00:00;1;4;-;-;22;;;wolkig
12.01.2017;05:00:00;9;4;-;-;24;;;wolkig
12.01.2017;06:00:00;17;4;-;-;24;;;wolkig
12.01.2017;07:00:00;71;4;-;-;26;;;Klarer Himmel
12.01.2017;08:00:00;114;4;-;-;22;;;Klarer Himmel
12.01.2017;09:00:00;89;5;-;-;22;;;wolkig
12.01.2017;10:00:00;55;5;-;-;22;;;teilweise bewölkt
12.01.2017;11:00:00;54;6;-;-;24;;;wolkig
12.01.2017;12:00:00;64;6;-;-;20;;;wolkig
12.01.2017;13:00:00;62;7;-;-;24;;;wolkig
12.01.2017;14:00:00;76;7;-;-;22;;;wolkig
12.01.2017;15:00:00;88;6;-;-;19;;;wolkig
12.01.2017;16:00:00;93;6;-;-;19;;;Regen
12.01.2017;17:00:00;85;6;-;-;13;;;Regen
12.01.2017;18:00:00;79;5;-;-;19;;;Regen
12.01.2017;19:00:00;45;5;-;-;24;;;Regen
12.01.2017;20:00:00;42;4;-;-;32;;;Regen
12.01.2017;21:00:00;17;3;-;-;33;;;Regen
12.01.2017;22:00:00;11;3;-;-;33;;;Regen
12.01.2017;23:00:00;12;4;-;-;32;;;wolkig
13.01.2017;00:00:00;5;5;-;-;28;;;Regen
13.01.2017;01:00:00;2;4;-;-;30;;;Regen
13.01.2017;02:00:00;0;3;-;-;24;;;Regen
13.01.2017;03:00:00;1;1;-;-;35;;;Schnee
13.01.2017;04:00:00;0;1;-;-;37;;;Schnee
13.01.2017;05:00:00;5;2;-;-;37;;;Regen
13.01.2017;06:00:00;13;2;-;-;30;;;Schnee
13.01.2017;07:00:00;56;3;-;-;26;;;wolkig
13.01.2017;08:00:00;76;2;-;-;28;;;wolkig
13.01.2017;09:00:00;84;2;-;-;28;;;Schnee
13.01.2017;10:00:00;60;2;-;-;28;;;wolkig
13.01.2017;11:00:00;38;2;-;-;26;;;Schnee
13.01.2017;12:00:00;60;2;-;-;19;;;wolkig
13.01.2017;13:00:00;63;2;-;-;22;;;teilweise bewölkt
13.01.2017;14:00:00;75;3;-;-;26;;;teilweise bewölkt
13.01.2017;15:00:00;71;3;-;-;24;;;teilweise bewölkt
13.01.2017;16:00:00;77;2;-;-;28;;;teilweise bewölkt
13.01.2017;17:00:00;55;2;-;-;28;;;wolkig
13.01.2017;18:00:00;68;2;-;-;26;;;wolkig
13.01.2017;19:00:00;34;1;-;-;26;;;Regen
13.01.2017;20:00:00;27;0;-;-;15;;;Schnee
13.01.2017;21:00:00;10;1;-;-;13;;;wolkig
13.01.2017;22:00:00;12;3;-;-;17;;;wolkig
13.01.2017;23:00:00;13;4;-;-;24;;;wolkig
14.01.2017;00:00:00;7;4;-;-;22;;;wolkig
14.01.2017;01:00:00;4;4;-;-;24;;;wolkig
14.01.2017;02:00:00;1;4;-;-;24;;;wolkig
14.01.2017;03:00:00;1;4;-;-;24;;;wolkig
14.01.2017;04:00:00;1;3;-;-;24;;;wolkig
14.01.2017;05:00:00;1;2;-;-;22;;;Klarer Himmel
14.01.2017;06:00:00;3;2;-;-;20;;;teilweise bewölkt
14.01.2017;07:00:00;4;2;-;-;24;;;Klarer Himmel
14.01.2017;08:00:00;9;1;-;-;22;;;teilweise bewölkt
14.01.2017;09:00:00;32;2;-;-;19;;;wolkig
14.01.2017;10:00:00;34;2;-;-;17;;;wolkig
14.01.2017;11:00:00;43;2;-;-;19;;;wolkig
14.01.2017;12:00:00;37;3;-;-;24;;;teilweise bewölkt
14.01.2017;13:00:00;43;4;-;-;26;;;teilweise bewölkt
14.01.2017;14:00:00;43;4;-;-;28;;;wolkig
14.01.2017;15:00:00;32;2;-;-;30;;;Schnee
14.01.2017;16:00:00;24;1;-;-;13;;;wolkig
14.01.2017;17:00:00;20;1;-;-;9;;;teilweise bewölkt
14.01.2017;18:00:00;31;1;-;-;13;;;teilweise bewölkt
14.01.2017;19:00:00;19;1;-;-;17;;;teilweise bewölkt
14.01.2017;20:00:00;44;1;-;-;17;;;teilweise bewölkt
14.01.2017;21:00:00;22;1;-;-;11;;;wolkig
14.01.2017;22:00:00;7;1;-;-;15;;;wolkig
14.01.2017;23:00:00;4;0;-;-;9;;;teilweise bewölkt
15.01.2017;00:00:00;9;0;-;-;15;;;Schnee
15.01.2017;01:00:00;5;1;-;-;17;;;Schnee
15.01.2017;02:00:00;0;0;-;-;13;;;teilweise bewölkt
15.01.2017;03:00:00;2;0;-;-;13;;;wolkig
15.01.2017;04:00:00;1;0;-;-;9;;;wolkig
15.01.2017;05:00:00;3;-1;-;-;11;;;teilweise bewölkt
15.01.2017;06:00:00;1;-3;-;-;2;;;teilweise bewölkt
15.01.2017;07:00:00;7;-4;-;-;6;;;Nebel
15.01.2017;08:00:00;4;-2;-;-;7;;;Nebel
15.01.2017;09:00:00;18;-2;-;-;6;;;teilweise bewölkt
15.01.2017;10:00:00;28;0;-;-;9;;;teilweise bewölkt
15.01.2017;11:00:00;25;1;-;-;11;;;wolkig
15.01.2017;12:00:00;26;2;-;-;13;;;wolkig
15.01.2017;13:00:00;31;2;-;-;15;;;wolkig
15.01.2017;14:00:00;24;2;-;-;13;;;wolkig
15.01.2017;15:00:00;32;1;-;-;11;;;wolkig
15.01.2017;16:00:00;43;1;-;-;7;;;wolkig
15.01.2017;17:00:00;35;1;-;-;4;;;wolkig
15.01.2017;18:00:00;22;1;-;-;6;;;wolkig
15.01.2017;19:00:00;17;1;-;-;4;;;wolkig
15.01.2017;20:00:00;12;1;-;-;6;;;wolkig
15.01.2017;21:00:00;11;1;-;-;2;;;wolkig
15.01.2017;22:00:00;8;0;-;-;2;;;wolkig
15.01.2017;23:00:00;1;-1;-;-;2;;;wolkig
16.01.2017;00:00:00;1;0;-;-;2;;;wolkig
16.01.2017;01:00:00;0;1;-;-;6;;;wolkig
16.01.2017;02:00:00;0;0;-;-;6;;;wolkig
16.01.2017;03:00:00;0;1;-;-;7;;;wolkig
16.01.2017;04:00:00;1;1;-;-;6;;;wolkig
16.01.2017;05:00:00;8;1;-;-;6;;;wolkig
16.01.2017;06:00:00;21;0;-;-;9;;;wolkig
16.01.2017;07:00:00;91;0;-;-;7;;;wolkig
16.01.2017;08:00:00;130;0;-;-;6;;;wolkig
16.01.2017;09:00:00;77;1;-;-;6;;;wolkig
16.01.2017;10:00:00;40;1;-;-;9;;;wolkig
16.01.2017;11:00:00;59;1;-;-;11;;;wolkig
16.01.2017;12:00:00;51;1;-;-;9;;;wolkig
16.01.2017;13:00:00;59;1;-;-;11;;;wolkig
16.01.2017;14:00:00;38;1;-;-;11;;;teilweise bewölkt
16.01.2017;15:00:00;73;2;-;-;7;;;teilweise bewölkt
16.01.2017;16:00:00;88;1;-;-;4;;;teilweise bewölkt
16.01.2017;17:00:00;96;-1;-;-;6;;;teilweise bewölkt
16.01.2017;18:00:00;82;-1;-;-;7;;;Klarer Himmel
16.01.2017;19:00:00;78;-2;-;-;6;;;Klarer Himmel
16.01.2017;20:00:00;30;-2;-;-;7;;;teilweise bewölkt
16.01.2017;21:00:00;50;-2;-;-;9;;;wolkig
16.01.2017;22:00:00;28;-3;-;-;6;;;teilweise bewölkt
16.01.2017;23:00:00;6;-4;-;-;4;;;teilweise bewölkt
17.01.2017;00:00:00;7;-5;-;-;7;;;teilweise bewölkt
17.01.2017;01:00:00;0;-4;-;-;6;;;wolkig
17.01.2017;02:00:00;0;-3;-;-;7;;;wolkig
17.01.2017;03:00:00;0;-3;-;-;4;;;wolkig
17.01.2017;04:00:00;1;-4;-;-;4;;;wolkig
17.01.2017;05:00:00;5;-4;-;-;6;;;wolkig
17.01.2017;06:00:00;17;-3;-;-;2;;;wolkig
17.01.2017;07:00:00;76;-5;-;-;7;;;teilweise bewölkt
17.01.2017;08:00:00;137;-6;-;-;4;;;teilweise bewölkt
17.01.2017;09:00:00;76;-3;-;-;6;;;teilweise bewölkt
17.01.2017;10:00:00;41;-2;-;-;9;;;Klarer Himmel
17.01.2017;11:00:00;65;-1;-;-;9;;;Klarer Himmel
17.01.2017;12:00:00;57;0;-;-;11;;;teilweise bewölkt
17.01.2017;13:00:00;48;0;-;-;11;;;teilweise bewölkt
17.01.2017;14:00:00;70;0;-;-;17;;;teilweise bewölkt
17.01.2017;15:00:00;72;-1;-;-;17;;;teilweise bewölkt
17.01.2017;16:00:00;92;-2;-;-;11;;;teilweise bewölkt
17.01.2017;17:00:00;104;-2;-;-;15;;;teilweise bewölkt
17.01.2017;18:00:00;109;-2;-;-;9;;;wolkig
17.01.2017;19:00:00;60;-3;-;-;9;;;teilweise bewölkt
17.01.2017;20:00:00;36;-3;-;-;6;;;
17.01.2017;21:00:00;26;-3;-;-;7;;;teilweise bewölkt
17.01.2017;22:00:00;16;-4;-;-;6;;;Klarer Himmel
17.01.2017;23:00:00;11;-4;-;-;9;;;teilweise bewölkt
18.01.2017;00:00:00;4;-5;-;-;7;;;teilweise bewölkt
18.01.2017;01:00:00;4;-5;-;-;13;;;teilweise bewölkt
18.01.2017;02:00:00;1;-5;-;-;6;;;Klarer Himmel
18.01.2017;03:00:00;1;-5;-;-;6;;;Klarer Himmel
18.01.2017;04:00:00;0;-5;-;-;4;;;Klarer Himmel
18.01.2017;05:00:00;5;-5;-;-;7;;;Klarer Himmel
18.01.2017;06:00:00;28;-6;-;-;2;;;
18.01.2017;07:00:00;71;-6;-;-;4;;;
18.01.2017;08:00:00;134;-7;-;-;4;;;
18.01.2017;09:00:00;78;-4;-;-;4;;;
18.01.2017;10:00:00;46;-3;-;-;6;;;
18.01.2017;11:00:00;41;-2;-;-;6;;;
18.01.2017;12:00:00;52;0;-;-;4;;;
18.01.2017;13:00:00;51;0;-;-;4;;;Klarer Himmel
18.01.2017;14:00:00;54;0;-;-;11;;;Klarer Himmel
18.01.2017;15:00:00;69;1;-;-;9;;;Klarer Himmel
18.01.2017;16:00:00;134;0;-;-;11;;;Klarer Himmel
18.01.2017;17:00:00;76;-1;-;-;6;;;Klarer Himmel
18.01.2017;18:00:00;89;-1;-;-;9;;;Klarer Himmel
18.01.2017;19:00:00;65;-1;-;-;9;;;Klarer Himmel
18.01.2017;20:00:00;40;-2;-;-;6;;;Klarer Himmel
18.01.2017;21:00:00;21;-3;-;-;4;;;Klarer Himmel
18.01.2017;22:00:00;27;-4;-;-;4;;;Klarer Himmel
18.01.2017;23:00:00;203;-4;-;-;4;;;Klarer Himmel
19.01.2017;00:00:00;4;-6;-;-;4;;;Klarer Himmel
19.01.2017;01:00:00;1;-7;-;-;2;;;Klarer Himmel
19.01.2017;02:00:00;4;-7;-;-;4;;;Klarer Himmel
19.01.2017;03:00:00;0;-7;-;-;4;;;Klarer Himmel
19.01.2017;04:00:00;1;-7;-;-;4;;;Klarer Himmel
19.01.2017;05:00:00;3;-7;-;-;6;;;Klarer Himmel
19.01.2017;06:00:00;18;-7;-;-;4;;;Klarer Himmel
19.01.2017;07:00:00;72;-5;-;-;2;;;Klarer Himmel
19.01.2017;08:00:00;134;-5;-;-;4;;;Klarer Himmel
19.01.2017;09:00:00;72;-2;-;-;2;;;Klarer Himmel
19.01.2017;10:00:00;50;0;-;-;2;;;Klarer Himmel
19.01.2017;11:00:00;58;0;-;-;7;;;Klarer Himmel
19.01.2017;12:00:00;45;2;-;-;6;;;Klarer Himmel
19.01.2017;13:00:00;41;4;-;-;11;;;Klarer Himmel
19.01.2017;14:00:00;79;5;-;-;11;;;Klarer Himmel
19.01.2017;15:00:00;83;4;-;-;9;;;Klarer Himmel
19.01.2017;16:00:00;86;3;-;-;7;;;Klarer Himmel
19.01.2017;17:00:00;81;1;-;-;9;;;Klarer Himmel
19.01.2017;18:00:00;98;-1;-;-;2;;;Klarer Himmel
19.01.2017;19:00:00;75;0;-;-;7;;;Klarer Himmel
19.01.2017;20:00:00;50;-1;-;-;4;;;Klarer Himmel
19.01.2017;21:00:00;28;-3;-;-;6;;;Klarer Himmel
19.01.2017;22:00:00;17;-3;-;-;4;;;Klarer Himmel
19.01.2017;23:00:00;12;-3;-;-;4;;;Klarer Himmel
20.01.2017;00:00:00;4;-4;-;-;4;;;Klarer Himmel
20.01.2017;01:00:00;4;-5;-;-;2;;;Klarer Himmel
20.01.2017;02:00:00;2;-6;-;-;4;;;Klarer Himmel
20.01.2017;03:00:00;0;-7;-;-;2;;;Klarer Himmel
20.01.2017;04:00:00;0;-7;-;-;2;;;Klarer Himmel
20.01.2017;05:00:00;5;-7;-;-;2;;;Klarer Himmel
20.01.2017;06:00:00;20;-7;-;-;2;;;Klarer Himmel
20.01.2017;07:00:00;71;-7;-;-;6;;;Klarer Himmel
20.01.2017;08:00:00;111;-6;-;-;4;;;Klarer Himmel
20.01.2017;09:00:00;73;-3;-;-;2;;;Klarer Himmel
20.01.2017;10:00:00;50;1;-;-;4;;;Klarer Himmel
20.01.2017;11:00:00;61;2;-;-;2;;;Klarer Himmel
20.01.2017;12:00:00;70;2;-;-;4;;;Klarer Himmel
20.01.2017;13:00:00;66;3;-;-;6;;;Klarer Himmel
20.01.2017;14:00:00;93;3;-;-;4;;;Klarer Himmel
20.01.2017;15:00:00;101;3;-;-;6;;;Klarer Himmel
20.01.2017;16:00:00;79;2;-;-;6;;;Klarer Himmel
20.01.2017;17:00:00;88;1;-;-;2;;;Klarer Himmel
20.01.2017;18:00:00;63;1;-;-;6;;;Klarer Himmel
20.01.2017;19:00:00;42;1;-;-;7;;;Klarer Himmel
20.01.2017;20:00:00;33;2;-;-;15;;;Klarer Himmel
20.01.2017;21:00:00;30;1;-;-;15;;;Klarer Himmel
20.01.2017;22:00:00;21;0;-;-;13;;;Klarer Himmel
20.01.2017;23:00:00;15;0;-;-;11;;;Klarer Himmel
21.01.2017;00:00:00;9;-1;-;-;4;;;Klarer Himmel
21.01.2017;01:00:00;5;-1;-;-;6;;;Klarer Himmel
21.01.2017;02:00:00;2;-2;-;-;4;;;Klarer Himmel
21.01.2017;03:00:00;0;-2;-;-;6;;;Klarer Himmel
21.01.2017;04:00:00;1;-5;-;-;2;;;Klarer Himmel
21.01.2017;05:00:00;5;-5;-;-;2;;;Klarer Himmel
21.01.2017;06:00:00;6;-5;-;-;2;;;Klarer Himmel
21.01.2017;07:00:00;7;-6;-;-;4;;;Klarer Himmel
21.01.2017;08:00:00;14;-5;-;-;4;;;Klarer Himmel
21.01.2017;09:00:00;29;-2;-;-;4;;;Klarer Himmel
21.01.2017;10:00:00;28;1;-;-;2;;;Klarer Himmel
21.01.2017;11:00:00;51;3;-;-;4;;;Klarer Himmel
21.01.2017;12:00:00;31;6;-;-;15;;;Klarer Himmel
21.01.2017;13:00:00;123;6;-;-;11;;;Klarer Himmel
21.01.2017;14:00:00;45;6;-;-;11;;;Klarer Himmel
21.01.2017;15:00:00;55;6;-;-;9;;;Klarer Himmel
21.01.2017;16:00:00;51;4;-;-;6;;;Klarer Himmel
21.01.2017;17:00:00;43;1;-;-;6;;;Klarer Himmel
21.01.2017;18:00:00;38;-1;-;-;6;;;Klarer Himmel
21.01.2017;19:00:00;30;-1;-;-;6;;;Klarer Himmel
21.01.2017;20:00:00;29;-1;-;-;7;;;Klarer Himmel
21.01.2017;21:00:00;10;-2;-;-;9;;;Klarer Himmel
21.01.2017;22:00:00;12;0;-;-;17;;;Klarer Himmel
21.01.2017;23:00:00;13;-1;-;-;11;;;Klarer Himmel
22.01.2017;00:00:00;23;-1;-;-;11;;;Klarer Himmel
22.01.2017;01:00:00;7;-2;-;-;13;;;Klarer Himmel
22.01.2017;02:00:00;1;-3;-;-;11;;;Klarer Himmel
22.01.2017;03:00:00;4;-2;-;-;13;;;Klarer Himmel
22.01.2017;04:00:00;4;-2;-;-;9;;;Klarer Himmel
22.01.2017;05:00:00;1;-4;-;-;9;;;Klarer Himmel
22.01.2017;06:00:00;3;-5;-;-;4;;;Klarer Himmel
22.01.2017;07:00:00;7;-4;-;-;7;;;Klarer Himmel
22.01.2017;08:00:00;8;-4;-;-;6;;;Klarer Himmel
22.01.2017;09:00:00;7;-1;-;-;4;;;Klarer Himmel
22.01.2017;10:00:00;39;0;-;-;7;;;Klarer Himmel
22.01.2017;11:00:00;42;1;-;-;9;;;Klarer Himmel
22.01.2017;12:00:00;36;2;-;-;9;;;Klarer Himmel
22.01.2017;13:00:00;55;3;-;-;7;;;Klarer Himmel
22.01.2017;14:00:00;46;3;-;-;6;;;Klarer Himmel
22.01.2017;15:00:00;52;2;-;-;9;;;Klarer Himmel
22.01.2017;16:00:00;42;1;-;-;7;;;Klarer Himmel
22.01.2017;17:00:00;48;-2;-;-;2;;;Klarer Himmel
22.01.2017;18:00:00;29;-3;-;-;2;;;Klarer Himmel
22.01.2017;19:00:00;28;-4;-;-;2;;;Klarer Himmel
22.01.2017;20:00:00;13;-5;-;-;2;;;Klarer Himmel
22.01.2017;21:00:00;13;-5;-;-;4;;;Klarer Himmel
22.01.2017;22:00:00;8;-6;-;-;4;;;Klarer Himmel
22.01.2017;23:00:00;14;-7;-;-;2;;;Klarer Himmel
23.01.2017;00:00:00;1;-7;-;-;2;;;Klarer Himmel
23.01.2017;01:00:00;1;-8;-;-;6;;;Klarer Himmel